Wind_Speed
23 21 21 21 21 20 19 20 20 23 24 21 20 21 19 17 16 13 11 10 9 16 22 24 24 23 23 22 19 16 15 15 16 16 17 16 16 16 17 17 13 11 8 7 9 14 14
25 24 24 22 21 21 22 22 21 20 22 24 23 21 21 21 19 18 16 14 13 11 11 22 24 25 24 25 20 20 18 17 17 16 17 15 17 19 13 13 11 8 8 8 10 12 14
30 28 26 25 24 24 25 23 23 23 23 23 22 24 22 23 22 22 19 18 15 15 13 13 20 26 24 26 22 21 19 18 17 18 17 18 20 18 18 12 12 10 7 7 9 13 14
36 34 33 31 28 27 26 25 25 24 23 25 24 23 23 24 24 23 22 20 18 16 16 14 16 21 25 27 23 22 21 20 19 19 21 16 13 16 16 13 13 11 10 8 8 11 14
40 39 39 36 35 30 27 26 26 26 24 24 26 27 24 22 26 26 25 24 21 19 18 17 16 16 24 24 27 25 22 23 22 21 17 18 18 16 13 15 14 12 12 13 8 8 10
45 44 42 40 37 36 33 29 28 27 26 26 25 27 28 26 24 26 27 26 24 23 20 18 17 16 17 22 26 22 25 23 23 22 23 19 19 17 15 12 11 11 10 12 15 11 8
48 47 46 44 43 40 37 36 30 29 28 29 28 26 27 29 28 25 26 29 27 26 23 22 17 18 14 15 15 27 23 22 23 23 22 22 22 18 16 15 14 13 8 3 14 10 8
51 49 48 47 46 44 43 40 36 31 28 30 29 30 28 29 30 30 28 26 30 28 25 25 21 20 18 17 19 21 24 23 19 18 22 24 21 20 19 18 15 22 16 4 18 16 13
52 51 51 49 48 47 45 45 40 36 31 28 31 27 31 31 31 31 32 29 28 30 27 27 24 23 21 19 20 19 19 25 26 21 20 24 19 22 23 23 22 21 24 21 19 18 18
52 52 52 51 49 49 48 47 45 42 36 33 30 32 29 33 32 33 30 32 30 28 31 28 27 26 26 19 20 21 17 20 22 19 25 20 22 21 21 22 21 23 28 26 27 30 23
52 51 51 51 51 50 49 48 46 45 40 37 36 33 32 30 31 33 32 31 33 30 32 32 32 30 28 22 21 20 16 21 20 21 24 24 26 21 16 18 23 21 20 22 23 26 20
54 52 51 50 49 48 48 48 46 44 42 39 35 39 35 33 29 33 37 35 32 33 34 32 33 29 29 25 26 24 21 22 21 23 24 23 25 21 18 23 22 19 21 23 22 24 16
56 56 54 52 51 49 46 47 45 44 42 39 37 38 40 37 34 35 37 37 35 35 34 33 34 31 27 28 27 27 21 24 22 24 24 24 21 18 21 23 24 18 20 23 23 22 20
54 50 48 47 46 46 45 44 43 42 40 40 37 38 40 35 35 38 39 37 40 38 33 36 35 31 29 25 27 30 24 24 25 23 24 25 25 22 24 21 22 22 22 24 23 24 24
42 42 45 44 44 44 41 44 45 41 42 41 38 40 37 37 38 43 42 39 37 37 35 36 39 35 30 29 29 29 26 24 23 25 24 24 27 28 22 24 24 22 21 21 22 21 23
49 50 52 51 51 49 48 48 48 46 45 46 44 43 39 39 41 40 44 40 39 37 38 36 40 38 32 29 30 33 28 24 23 23 25 23 27 29 24 20 24 25 25 21 24 20 20
53 52 52 54 58 58 56 56 54 55 53 52 53 50 47 45 44 44 43 44 42 41 40 40 39 40 35 34 32 31 32 26 25 24 26 23 25 29 24 18 17 20 24 24 20 20 20
61 58 60 59 59 58 57 57 56 57 56 56 56 56 55 52 50 48 46 46 47 46 43 44 40 40 37 37 37 35 36 32 29 28 28 24 24 29 24 21 19 19 20 22 22 20 21
58 59 59 60 58 57 56 55 54 56 57 58 59 59 58 56 53 54 52 51 50 49 49 47 42 41 42 38 40 38 37 38 32 31 29 25 27 26 27 18 16 20 20 22 21 23 25
57 57 58 55 53 53 51 48 49 48 51 55 54 56 58 59 59 57 57 56 54 55 50 50 49 43 44 45 44 41 38 40 35 33 30 30 29 25 22 25 22 18 21 21 22 26 27
48 50 50 50 46 46 45 43 44 44 47 45 46 49 54 56 59 61 61 59 59 57 56 52 54 46 43 49 47 45 42 43 40 36 34 33 29 27 25 27 27 19 20 19 21 26 27
42 41 43 44 44 44 49 46 44 45 46 45 44 43 44 47 52 54 57 61 61 58 58 56 54 51 48 49 53 51 49 47 45 40 37 34 29 30 28 24 28 19 19 17 17 20 19
37 33 33 33 36 37 40 43 48 47 48 47 43 41 41 41 47 50 51 54 57 58 56 56 57 58 53 51 53 53 53 49 48 46 40 38 32 33 30 25 28 15 13 21 14 12 12
35 31 34 36 38 36 33 41 43 43 41 42 44 43 42 42 43 46 48 54 57 57 56 55 56 56 55 54 55 52 53 53 52 48 42 39 35 35 31 30 28 14 21 17 15 14 11
33 37 38 38 36 37 37 35 38 42 45 48 50 49 49 45 43 44 49 52 56 57 56 59 55 53 54 55 54 52 53 53 53 49 47 42 36 37 34 31 25 19 18 19 17 12 12
25 25 31 34 36 38 38 41 39 37 36 37 41 44 47 47 45 48 45 49 51 51 55 57 56 54 50 49 57 54 53 55 53 52 47 45 38 39 38 34 26 15 18 17 18 12 17
24 24 27 27 26 25 26 28 29 29 29 31 34 37 40 43 44 47 46 47 50 51 51 53 53 50 53 48 51 56 58 54 56 53 47 47 42 41 38 35 28 18 17 16 18 15 18
21 22 20 21 23 25 27 26 26 26 26 28 33 37 39 41 43 44 45 44 46 51 46 44 45 47 53 50 48 50 55 57 54 51 48 47 42 41 39 36 27 20 19 21 19 18 17
24 24 22 23 23 23 27 26 26 27 27 27 30 34 39 42 41 45 42 43 42 44 42 41 43 39 39 49 47 41 42 58 55 53 49 43 44 44 39 34 20 28 27 19 19 20 18
Wind_Direction
252 254 255 256 258 258 256 258 265 266 264 263 263 261 258 257 258 259 259 265 277 253 240 243 249 254 258 254 250 250 248 253 249 254 252 247 246 251 254 250 259 281 293 292 274 264 280
247 249 253 254 255 258 257 257 255 261 268 267 262 261 259 257 256 257 258 257 262 274 266 246 240 242 245 250 249 244 247 252 254 251 260 254 247 253 254 259 272 290 294 273 283 277 270
249 246 245 249 255 257 258 256 257 253 256 264 268 261 259 257 256 256 257 257 256 261 263 265 250 240 236 240 239 246 239 238 249 253 253 255 258 250 248 272 286 303 295 275 271 268 270
250 247 245 247 249 254 254 256 255 255 255 257 259 265 262 258 256 256 256 258 256 256 257 258 258 246 240 241 234 227 231 230 232 240 247 258 270 258 251 255 268 285 283 266 283 274 282
252 251 247 245 246 247 252 253 253 253 253 256 259 257 261 263 258 255 254 256 258 252 253 254 258 255 249 244 236 235 229 231 231 234 244 244 248 255 252 247 260 275 276 273 224 252 291
253 252 250 248 243 244 248 250 252 252 256 252 256 260 258 258 262 259 255 251 256 257 254 255 259 261 260 250 244 247 237 235 235 232 236 241 241 240 240 241 255 248 261 283 262 255 259
253 252 250 248 246 243 244 245 249 253 250 251 252 253 258 259 257 259 257 253 249 253 253 252 254 254 253 248 252 240 248 239 238 236 234 233 232 232 232 224 222 231 255 239 298 297 266
254 251 250 249 247 244 243 243 243 246 249 249 250 254 252 256 259 257 258 255 250 250 250 254 251 254 249 245 242 244 236 243 248 246 242 237 234 226 223 228 216 217 244 230 275 256 290
252 252 251 249 248 247 244 243 241 240 240 244 246 252 254 254 259 261 257 258 255 248 246 248 248 248 250 242 252 252 237 244 247 239 250 249 239 234 227 220 222 225 227 220 255 268 256
252 250 251 249 248 247 247 245 242 240 238 239 240 244 248 255 254 260 261 257 258 254 249 244 246 244 247 243 245 248 240 247 252 254 241 250 242 243 236 240 240 230 233 233 234 251 266
252 249 249 249 248 246 246 246 244 241 238 236 236 237 243 247 256 258 259 259 255 255 255 247 244 246 248 244 241 248 246 243 249 244 245 243 249 249 255 255 254 253 254 249 249 258 274
250 248 245 247 246 245 246 246 240 240 238 236 235 233 238 241 255 255 257 259 256 251 252 252 249 244 243 239 245 243 246 250 248 247 248 252 260 252 252 250 257 258 261 256 253 257 266
246 247 246 245 246 245 245 243 240 238 236 236 236 234 235 236 246 249 252 255 255 253 252 252 252 247 244 240 244 244 241 249 250 250 254 258 259 255 247 257 249 258 256 255 257 262 257
247 247 248 246 246 243 240 240 240 239 239 237 237 234 234 236 238 243 248 251 254 252 248 254 254 250 244 245 240 246 240 236 247 251 248 252 256 260 242 252 254 249 250 258 253 258 259
253 253 247 250 247 247 247 248 243 243 244 243 244 239 240 237 235 240 241 250 254 254 248 242 248 249 241 240 243 243 244 240 239 250 250 252 256 256 250 247 251 252 249 264 263 254 259
256 254 253 252 252 253 254 250 250 249 251 254 250 249 247 241 238 241 240 246 249 247 248 244 249 248 246 237 243 243 241 240 241 240 244 243 253 261 265 251 250 257 264 266 259 263 261
259 260 263 258 255 254 254 252 252 253 253 250 253 252 248 243 242 242 244 240 244 244 244 244 242 245 244 234 236 240 239 237 236 240 237 233 246 258 267 274 258 257 259 260 268 277 270
258 258 259 260 261 260 257 256 253 252 253 251 250 249 247 245 242 245 245 240 239 242 238 243 239 242 239 236 234 236 238 237 228 231 238 239 246 258 268 262 259 257 262 262 266 278 275
262 262 261 261 261 259 258 256 255 254 253 253 251 250 248 246 244 241 240 240 239 240 238 238 237 238 233 229 233 232 237 238 232 230 235 241 244 253 265 263 261 266 260 258 267 272 276
263 262 262 260 258 255 254 250 250 249 249 249 249 249 246 245 242 239 239 238 237 237 237 236 237 232 235 229 230 230 234 243 238 231 229 236 244 249 259 262 253 248 255 264 274 280 287
261 257 253 253 250 248 247 243 244 243 242 241 243 245 244 242 243 240 237 236 235 235 237 233 235 233 231 234 224 228 229 237 238 235 229 235 239 246 248 258 265 253 255 261 274 278 288
257 252 249 246 243 247 241 243 240 241 236 238 240 240 243 245 243 243 241 238 236 234 233 230 230 230 226 230 228 225 227 231 234 234 233 238 239 243 245 246 265 269 263 266 263 282 289
256 248 248 246 244 249 245 240 242 234 230 236 245 250 254 260 248 244 239 234 236 235 235 234 229 227 222 227 231 231 226 227 236 236 238 239 233 238 244 246 249 265 278 272 282 282 286
244 244 242 237 233 228 233 235 234 232 240 246 250 256 254 255 245 242 236 232 226 227 225 228 228 227 230 225 227 228 230 229 231 236 232 237 238 241 242 245 249 264 261 272 275 287 280
240 242 249 255 254 253 257 258 255 258 255 255 258 257 253 247 245 238 232 232 229 224 225 225 221 224 227 225 228 225 225 230 231 233 236 234 238 243 245 249 251 248 263 261 264 275 272
234 252 252 252 250 253 258 260 261 258 254 249 249 246 247 239 236 235 234 228 226 222 223 223 224 220 223 222 221 227 224 228 229 231 231 237 234 236 238 241 245 242 257 259 254 260 258
244 259 246 240 236 238 243 245 246 248 249 249 247 243 240 232 228 227 230 231 228 217 223 224 221 221 220 223 224 224 227 228 223 230 229 234 234 239 243 243 240 245 241 245 253 244 252
240 241 239 238 236 237 240 244 250 254 254 253 249 243 237 230 227 226 226 229 230 220 217 225 223 219 221 211 219 226 228 226 229 229 229 233 235 237 242 241 239 243 238 244 249 253 256
233 238 240 237 235 236 242 249 252 257 263 254 250 246 240 232 225 225 225 227 229 223 219 218 214 215 222 215 208 210 222 224 223 225 226 228 232 235 242 248 234 234 238 245 248 252 251
Height
5826 5827 5828 5829 5829 5830 5830 5832 5832 5833 5834 5836 5837 5839 5841 5843 5844 5844 5845 5846 5848 5849 5851 5853 5855 5857 5859 5861 5864 5865 5866 5867 5868 5868 5871 5872 5873 5872 5874 5873 5874 5874 5875 5876 5875 5875 5875
5819 5821 5822 5824 5825 5825 5825 5826 5827 5828 5829 5830 5832 5834 5836 5838 5839 5840 5841 5843 5844 5846 5847 5848 5850 5851 5854 5856 5861 5860 5863 5864 5865 5865 5867 5868 5869 5868 5870 5871 5873 5873 5874 5874 5874 5874 5873
5813 5814 5815 5817 5819 5820 5821 5821 5822 5823 5824 5825 5827 5828 5830 5832 5834 5836 5838 5838 5840 5841 5843 5844 5845 5847 5849 5850 5853 5856 5857 5859 5861 5862 5863 5864 5864 5865 5866 5869 5869 5871 5872 5872 5873 5873 5872
5804 5806 5808 5810 5812 5813 5815 5816 5817 5818 5819 5820 5822 5823 5825 5826 5829 5831 5833 5834 5835 5837 5839 5840 5841 5842 5844 5847 5848 5848 5852 5854 5856 5858 5859 5861 5864 5863 5863 5867 5868 5869 5869 5870 5870 5871 5869
5793 5796 5799 5801 5804 5806 5808 5809 5811 5812 5813 5815 5816 5818 5819 5821 5822 5824 5827 5830 5831 5833 5834 5835 5837 5838 5839 5844 5843 5844 5847 5849 5851 5853 5856 5857 5858 5860 5862 5864 5866 5866 5866 5866 5867 5866 5867
5783 5786 5789 5792 5794 5797 5799 5802 5803 5805 5806 5808 5809 5811 5813 5815 5817 5819 5821 5823 5826 5828 5830 5832 5833 5835 5836 5838 5840 5841 5842 5846 5846 5849 5850 5852 5854 5855 5858 5861 5863 5864 5863 5861 5860 5863 5863
5772 5774 5778 5781 5784 5786 5789 5792 5795 5797 5799 5801 5803 5804 5806 5808 5811 5813 5816 5818 5821 5824 5825 5827 5830 5830 5832 5835 5836 5836 5839 5840 5842 5845 5846 5846 5848 5851 5854 5856 5857 5860 5860 5860 5857 5856 5857
5760 5763 5766 5769 5772 5776 5779 5783 5786 5788 5791 5794 5796 5798 5799 5801 5804 5807 5809 5812 5814 5817 5820 5822 5824 5826 5828 5830 5830 5831 5836 5838 5838 5841 5842 5843 5846 5846 5849 5852 5852 5854 5856 5857 5850 5854 5854
5748 5751 5754 5757 5762 5765 5768 5772 5776 5779 5781 5786 5788 5791 5792 5794 5797 5800 5803 5806 5807 5809 5813 5816 5819 5821 5823 5826 5827 5829 5831 5831 5834 5837 5838 5839 5843 5841 5844 5845 5848 5852 5851 5853 5850 5849 5854
5735 5739 5742 5746 5750 5754 5758 5761 5765 5769 5772 5775 5779 5782 5785 5786 5790 5793 5796 5798 5801 5804 5806 5812 5814 5817 5817 5821 5823 5824 5827 5828 5829 5833 5833 5835 5836 5838 5841 5844 5845 5846 5847 5850 5852 5847 5852
5721 5726 5729 5733 5737 5742 5746 5749 5754 5758 5761 5765 5768 5772 5777 5778 5782 5786 5788 5791 5795 5799 5800 5804 5807 5810 5813 5817 5818 5819 5822 5823 5825 5828 5828 5832 5831 5835 5838 5839 5839 5842 5846 5848 5848 5847 5849
5707 5711 5716 5720 5725 5729 5733 5738 5742 5746 5750 5754 5757 5761 5766 5770 5774 5777 5780 5784 5788 5793 5793 5796 5798 5804 5807 5811 5811 5813 5817 5818 5821 5822 5823 5827 5828 5831 5834 5833 5836 5840 5840 5841 5842 5842 5846
5694 5697 5702 5706 5711 5716 5721 5725 5730 5734 5739 5743 5746 5750 5756 5760 5765 5767 5771 5776 5781 5784 5788 5791 5791 5796 5800 5805 5806 5807 5812 5812 5815 5817 5819 5822 5824 5826 5827 5828 5831 5833 5834 5835 5838 5839 5841
5679 5683 5688 5693 5698 5703 5707 5713 5718 5722 5727 5731 5735 5740 5745 5748 5754 5757 5762 5767 5772 5777 5781 5782 5785 5790 5795 5798 5801 5800 5804 5807 5809 5812 5814 5815 5818 5820 5824 5823 5825 5827 5828 5831 5832 5833 5834
5667 5671 5675 5680 5685 5691 5695 5700 5705 5709 5714 5719 5725 5729 5735 5736 5741 5746 5752 5757 5764 5770 5773 5774 5776 5781 5787 5791 5794 5796 5797 5801 5805 5806 5809 5811 5812 5814 5818 5818 5821 5822 5824 5826 5825 5828 5829
5654 5659 5664 5668 5672 5677 5682 5687 5692 5696 5700 5706 5711 5717 5724 5724 5730 5735 5742 5749 5753 5761 5762 5767 5769 5775 5780 5784 5786 5789 5792 5796 5799 5802 5803 5807 5806 5806 5809 5813 5816 5817 5818 5820 5820 5822 5823
5640 5644 5648 5652 5657 5662 5666 5671 5676 5680 5685 5691 5696 5702 5709 5712 5717 5723 5730 5738 5744 5750 5752 5758 5761 5765 5772 5774 5777 5782 5786 5790 5792 5795 5797 5802 5802 5801 5805 5808 5810 5811 5812 5813 5815 5816 5817
5624 5628 5632 5636 5640 5645 5650 5655 5659 5663 5669 5674 5679 5686 5692 5697 5704 5711 5719 5726 5733 5738 5741 5746 5753 5757 5763 5767 5768 5774 5779 5780 5785 5787 5790 5795 5797 5795 5799 5802 5804 5806 5807 5807 5810 5813 5812
5606 5611 5615 5619 5623 5628 5633 5637 5642 5647 5652 5657 5662 5668 5675 5682 5690 5697 5705 5712 5718 5726 5729 5736 5744 5748 5752 5759 5762 5764 5770 5774 5779 5782 5785 5789 5791 5793 5791 5798 5800 5800 5801 5803 5805 5805 5805
5588 5593 5597 5602 5606 5610 5616 5622 5627 5631 5635 5640 5645 5652 5659 5665 5673 5680 5688 5698 5705 5712 5718 5724 5730 5738 5745 5749 5753 5757 5762 5766 5772 5774 5779 5781 5784 5788 5791 5791 5793 5796 5795 5796 5796 5797 5799
5573 5577 5581 5585 5590 5596 5602 5608 5613 5618 5622 5626 5631 5636 5642 5651 5657 5664 5672 5683 5691 5699 5706 5710 5717 5728 5734 5738 5743 5749 5753 5757 5764 5767 5772 5774 5779 5782 5785 5784 5784 5790 5791 5792 5792 5790 5789
5560 5563 5567 5572 5578 5582 5589 5595 5600 5605 5610 5615 5619 5624 5631 5638 5643 5649 5657 5671 5675 5684 5687 5697 5704 5713 5721 5727 5732 5737 5743 5747 5754 5760 5764 5768 5773 5774 5777 5781 5779 5783 5784 5786 5786 5784 5783
5549 5553 5557 5561 5567 5572 5576 5582 5588 5592 5597 5601 5607 5613 5620 5627 5630 5634 5644 5650 5659 5665 5675 5685 5689 5696 5706 5716 5722 5730 5732 5738 5743 5751 5758 5761 5765 5767 5771 5775 5775 5780 5779 5775 5778 5779 5777
5541 5546 5550 5554 5559 5563 5568 5571 5577 5581 5586 5591 5594 5600 5606 5613 5617 5622 5626 5631 5635 5647 5659 5667 5677 5686 5696 5703 5711 5717 5725 5730 5733 5740 5749 5753 5758 5760 5764 5766 5768 5775 5773 5774 5773 5772 5772
5533 5538 5542 5546 5550 5554 5558 5562 5566 5570 5574 5578 5581 5586 5591 5599 5605 5609 5608 5619 5628 5638 5646 5653 5662 5673 5683 5693 5700 5706 5713 5719 5725 5731 5738 5745 5750 5751 5756 5759 5764 5768 5769 5768 5768 5769 5767
5526 5530 5532 5535 5539 5542 5546 5550 5553 5557 5559 5562 5566 5569 5574 5583 5592 5594 5602 5609 5618 5627 5635 5642 5651 5662 5671 5679 5689 5695 5701 5709 5714 5720 5729 5735 5742 5744 5746 5750 5755 5763 5762 5763 5763 5766 5762
5518 5520 5523 5527 5530 5533 5537 5541 5544 5547 5550 5552 5554 5558 5562 5571 5578 5583 5590 5598 5607 5616 5625 5632 5641 5651 5659 5667 5675 5684 5690 5698 5703 5711 5721 5724 5732 5735 5739 5743 5748 5754 5756 5757 5758 5764 5759
5510 5514 5517 5520 5523 5527 5530 5533 5536 5539 5542 5545 5546 5549 5553 5559 5567 5574 5581 5590 5597 5605 5613 5624 5633 5640 5648 5656 5664 5671 5678 5687 5693 5703 5710 5716 5724 5728 5731 5735 5742 5747 5750 5751 5754 5753 5754
5503 5508 5511 5514 5517 5520 5523 5527 5530 5532 5534 5536 5538 5540 5543 5549 5560 5565 5574 5581 5587 5595 5606 5613 5621 5631 5637 5645 5653 5659 5666 5674 5683 5690 5699 5707 5714 5719 5725 5731 5739 5736 5740 5744 5747 5748 5750